User: anonymous
Location: Kopernik Observatory
(42.0014°N, 76.0372°W)
Time: 06:00:12
(UTC-04:00)
Language:

CENTAUR R/B - Orbit

View from above orbital plane
View from above orbital plane
View from above satellite
View from above satellite

Ground track
Ground track

The orbit data is extracted from the following two-line orbital elements,

1 26906U 01040B   14095.90255749 0.00000150  00000-0  21572-3 0    07
2 26906  63.4675  85.5438 0247089 345.5168  14.4832 13.43899001    01
Epoch (UTC): 05 April 2014 21:39:40
Eccentricity: 0.0247089
inclination: 63.4675°
perigee height: 910 km
apogee height: 1279 km
right ascension of ascending node: 85.5438°
argument of perigee: 345.5168°
revolutions per day: 13.43899001
mean anomaly at epoch: 14.4832°
orbit number at epoch: 0

The dashed part of the orbit path shows where the satellite is in the earth's shadow,  

DLR